Location: Newark
(48.1500°N, 2.9667°W)
Time: 15:23:43
(UTC+00:00)

Transit 2A - Pass Details

Date: 27 January 2020
Orbit: 599 x 959 km, 66.7° (Epoch: 25 February)

Event Time Altitude Azimuth Distance (km) Brightness Sun altitude
Rises 21:51:30 0° 271° (W) 2,851 - -47.1°
Reaches altitude 10° 21:54:42 10° 296° (WNW) 1,947 - -47.5°
Maximum altitude 21:57:07 14° 330° (NNW) 1,682 - -47.9°
Drops below altitude 10° 21:59:34 10° 4° (N) 1,977 - -48.2°
Sets 22:02:52 0° 30° (NNE) 2,926 - -48.7°
